Time,TemperatureF,DewpointF,PressureIn,WindDirection,WindDirectionDegrees,WindSpeedMPH,WindSpeedGustMPH,Humidity,HourlyPrecipIn,Conditions,Clouds,dailyrainin,SoftwareType,DateUTC
2013-04-29 00:02:00,44.0,28.0,-100.00,NW,320,7.0,9.0,52,0.00,,,-99.99,,2013-04-29 05:02:00,
2013-04-29 00:12:00,44.0,28.0,-100.00,NW,320,7.0,9.0,52,0.00,,,-99.99,,2013-04-29 05:12:00,
2013-04-29 00:22:00,41.0,26.0,-100.00,NW,315,6.0,9.0,55,0.00,,,-99.99,,2013-04-29 05:22:00,
2013-04-29 00:32:00,36.0,22.0,-100.00,NW,325,6.0,9.0,56,0.00,,,-99.99,,2013-04-29 05:32:00,
2013-04-29 00:42:00,36.0,22.0,-100.00,NW,325,6.0,9.0,56,0.00,,,-99.99,,2013-04-29 05:42:00,
2013-04-29 00:52:00,41.0,29.0,-100.00,NW,320,6.0,9.0,60,0.00,,,-99.99,,2013-04-29 05:52:00,
2013-04-29 01:02:00,39.0,27.0,-100.00,NW,315,6.0,9.0,61,0.00,,,-99.99,,2013-04-29 06:02:00,
2013-04-29 01:11:00,39.0,27.0,-100.00,NW,315,6.0,9.0,61,0.00,,,-99.99,,2013-04-29 06:11:00,
2013-04-29 01:21:00,42.0,31.0,-100.00,NW,315,6.0,9.0,63,0.00,,,-99.99,,2013-04-29 06:21:00,
2013-04-29 01:32:00,42.0,31.0,-100.00,NW,325,6.0,9.0,65,0.00,,,-99.99,,2013-04-29 06:32:00,
2013-04-29 01:42:00,42.0,31.0,-100.00,NW,325,6.0,9.0,65,0.00,,,-99.99,,2013-04-29 06:42:00,
2013-04-29 01:52:00,42.0,31.0,-100.00,NW,325,6.0,9.0,66,0.00,,,-99.99,,2013-04-29 06:52:00,
2013-04-29 02:01:00,42.0,31.0,-100.00,NW,325,7.0,9.0,67,0.00,,,-99.99,,2013-04-29 07:01:00,
2013-04-29 02:11:00,42.0,31.0,-100.00,NW,325,7.0,9.0,67,0.00,,,-99.99,,2013-04-29 07:11:00,
2013-04-29 02:21:00,41.0,31.0,-100.00,NW,310,4.0,8.0,68,0.00,,,-99.99,,2013-04-29 07:21:00,
2013-04-29 02:32:00,37.0,28.0,-100.00,NW,325,5.0,7.0,70,0.00,,,-99.99,,2013-04-29 07:32:00,
2013-04-29 02:42:00,37.0,28.0,-100.00,NW,325,5.0,7.0,70,0.00,,,-99.99,,2013-04-29 07:42:00,
2013-04-29 02:52:00,40.0,31.0,-100.00,NW,320,4.0,6.0,72,0.00,,,-99.99,,2013-04-29 07:52:00,
2013-04-29 03:03:00,39.0,31.0,-100.00,NW,320,3.0,6.0,72,0.00,,,-99.99,,2013-04-29 08:03:00,
2013-04-29 03:11:00,39.0,31.0,-100.00,NW,320,3.0,6.0,72,0.00,,,-99.99,,2013-04-29 08:11:00,
2013-04-29 03:21:00,31.0,24.0,-100.00,NW,310,3.0,6.0,75,0.00,,,-99.99,,2013-04-29 08:21:00,
2013-04-29 03:32:00,38.0,31.0,-100.00,NW,320,3.0,5.0,76,0.00,,,-99.99,,2013-04-29 08:32:00,
2013-04-29 03:42:00,38.0,31.0,-100.00,NW,320,3.0,5.0,76,0.00,,,-99.99,,2013-04-29 08:42:00,
2013-04-29 03:51:00,38.0,32.0,-100.00,NW,325,2.0,4.0,78,0.00,,,-99.99,,2013-04-29 08:51:00,
2013-04-29 04:01:00,37.0,31.0,-100.00,NNW,330,2.0,3.0,79,0.00,,,-99.99,,2013-04-29 09:01:00,
2013-04-29 04:12:00,37.0,31.0,-100.00,NNW,330,2.0,3.0,79,0.00,,,-99.99,,2013-04-29 09:12:00,
2013-04-29 04:21:00,37.0,31.0,-100.00,WNW,290,0.0,2.0,81,0.00,,,-99.99,,2013-04-29 09:21:00,
2013-04-29 04:33:00,36.0,31.0,-100.00,WNW,290,0.0,1.0,81,0.00,,,-99.99,,2013-04-29 09:33:00,
2013-04-29 04:42:00,36.0,31.0,-100.00,WNW,290,0.0,1.0,81,0.00,,,-99.99,,2013-04-29 09:42:00,
2013-04-29 04:52:00,35.0,31.0,-100.00,WNW,290,1.0,1.0,83,0.00,,,-99.99,,2013-04-29 09:52:00,
2013-04-29 05:02:00,35.0,31.0,-100.00,NW,310,2.0,2.0,85,0.00,,,-99.99,,2013-04-29 10:02:00,
2013-04-29 05:12:00,35.0,31.0,-100.00,NW,310,2.0,2.0,85,0.00,,,-99.99,,2013-04-29 10:12:00,
2013-04-29 05:23:00,28.0,24.0,-100.00,NW,325,2.0,4.0,87,0.00,,,-99.99,,2013-04-29 10:23:00,
2013-04-29 05:32:00,34.0,31.0,-100.00,North,350,1.0,4.0,88,0.00,,,-99.99,,2013-04-29 10:32:00,
2013-04-29 05:42:00,34.0,31.0,-100.00,North,350,1.0,4.0,88,0.00,,,-99.99,,2013-04-29 10:42:00,
2013-04-29 05:52:00,34.0,31.0,-100.00,North,350,1.0,2.0,90,0.00,,,-99.99,,2013-04-29 10:52:00,
2013-04-29 06:02:00,33.0,31.0,-100.00,North,350,0.0,1.0,91,0.00,,,-99.99,,2013-04-29 11:02:00,
2013-04-29 06:12:00,33.0,31.0,-100.00,North,350,0.0,1.0,91,0.00,,,-99.99,,2013-04-29 11:12:00,
2013-04-29 06:21:00,31.0,29.0,-100.00,North,350,0.0,2.0,92,0.00,,,-99.99,,2013-04-29 11:21:00,
2013-04-29 06:32:00,29.0,27.0,-100.00,North,0,0.0,1.0,93,0.00,,,-99.99,,2013-04-29 11:32:00,
2013-04-29 06:42:00,29.0,27.0,-100.00,North,0,0.0,1.0,93,0.00,,,-99.99,,2013-04-29 11:42:00,
2013-04-29 06:52:00,32.0,31.0,-100.00,North,0,1.0,1.0,94,0.00,,,-99.99,,2013-04-29 11:52:00,
2013-04-29 07:01:00,29.0,27.0,-100.00,North,0,0.0,1.0,95,0.00,,,-99.99,,2013-04-29 12:01:00,
2013-04-29 07:12:00,29.0,27.0,-100.00,North,0,0.0,1.0,95,0.00,,,-99.99,,2013-04-29 12:12:00,
2013-04-29 07:22:00,35.0,34.0,-100.00,East,90,2.0,4.0,96,0.00,,,-99.99,,2013-04-29 12:22:00,
2013-04-29 07:32:00,36.0,35.0,-100.00,East,100,4.0,6.0,96,0.00,,,-99.99,,2013-04-29 12:32:00,
2013-04-29 07:42:00,36.0,35.0,-100.00,East,100,4.0,6.0,96,0.00,,,-99.99,,2013-04-29 12:42:00,
2013-04-29 07:52:00,36.0,35.0,-100.00,SE,125,4.0,6.0,96,0.00,,,-99.99,,2013-04-29 12:52:00,
2013-04-29 08:01:00,37.0,36.0,-100.00,ESE,105,3.0,7.0,94,0.00,,,-99.99,,2013-04-29 13:01:00,
2013-04-29 08:11:00,37.0,36.0,-100.00,ESE,105,3.0,7.0,94,0.00,,,-99.99,,2013-04-29 13:11:00,
2013-04-29 08:21:00,38.0,36.0,-100.00,SE,125,4.0,6.0,92,0.00,,,-99.99,,2013-04-29 13:21:00,
2013-04-29 08:31:00,39.0,36.0,-100.00,SE,145,5.0,7.0,92,0.00,,,-99.99,,2013-04-29 13:31:00,
2013-04-29 08:42:00,39.0,36.0,-100.00,SE,145,5.0,7.0,92,0.00,,,-99.99,,2013-04-29 13:42:00,
2013-04-29 08:52:00,40.0,37.0,-100.00,SSE,165,6.0,9.0,89,0.00,,,-99.99,,2013-04-29 13:52:00,
2013-04-29 09:02:00,40.0,37.0,-100.00,SE,145,4.0,9.0,87,0.00,,,-99.99,,2013-04-29 14:02:00,
2013-04-29 09:11:00,40.0,37.0,-100.00,SE,145,4.0,9.0,87,0.00,,,-99.99,,2013-04-29 14:11:00,
2013-04-29 09:21:00,42.0,37.0,-100.00,SSE,150,6.0,9.0,82,0.00,,,-99.99,,2013-04-29 14:21:00,
2013-04-29 09:32:00,43.0,37.0,-100.00,SSE,150,4.0,9.0,79,0.00,,,-99.99,,2013-04-29 14:32:00,
2013-04-29 09:42:00,43.0,37.0,-100.00,SSE,150,4.0,9.0,79,0.00,,,-99.99,,2013-04-29 14:42:00,
2013-04-29 09:52:00,44.0,37.0,-100.00,SE,135,6.0,9.0,76,0.00,,,-99.99,,2013-04-29 14:52:00,
2013-04-29 10:01:00,43.0,35.0,-100.00,SE,145,5.0,9.0,74,0.00,,,-99.99,,2013-04-29 15:01:00,
2013-04-29 10:12:00,43.0,35.0,-100.00,SE,145,5.0,9.0,74,0.00,,,-99.99,,2013-04-29 15:12:00,
2013-04-29 10:21:00,45.0,36.0,-100.00,ESE,120,6.0,9.0,70,0.00,,,-99.99,,2013-04-29 15:21:00,
2013-04-29 10:33:00,47.0,38.0,-100.00,SSE,165,6.0,9.0,69,0.00,,,-99.99,,2013-04-29 15:33:00,
2013-04-29 10:42:00,47.0,38.0,-100.00,SSE,165,6.0,9.0,69,0.00,,,-99.99,,2013-04-29 15:42:00,
2013-04-29 10:52:00,49.0,38.0,-100.00,ESE,105,6.0,9.0,67,0.00,,,-99.99,,2013-04-29 15:52:00,
2013-04-29 11:02:00,49.0,38.0,-100.00,SE,130,6.0,9.0,65,0.00,,,-99.99,,2013-04-29 16:02:00,
2013-04-29 11:12:00,49.0,38.0,-100.00,SE,130,6.0,9.0,65,0.00,,,-99.99,,2013-04-29 16:12:00,
2013-04-29 11:23:00,50.0,39.0,-100.00,SE,140,6.0,9.0,64,0.00,,,-99.99,,2013-04-29 16:23:00,
2013-04-29 11:33:00,52.0,41.0,-100.00,SE,140,5.0,9.0,65,0.00,,,-99.99,,2013-04-29 16:33:00,
2013-04-29 11:42:00,52.0,41.0,-100.00,SE,140,5.0,9.0,65,0.00,,,-99.99,,2013-04-29 16:42:00,
2013-04-29 11:52:00,53.0,40.0,-100.00,South,185,5.0,9.0,62,0.00,,,-99.99,,2013-04-29 16:52:00,
2013-04-29 12:02:00,54.0,40.0,-100.00,SE,140,4.0,9.0,59,0.00,,,-99.99,,2013-04-29 17:02:00,
2013-04-29 12:12:00,54.0,40.0,-100.00,SE,140,4.0,9.0,59,0.00,,,-99.99,,2013-04-29 17:12:00,
2013-04-29 12:22:00,55.0,41.0,-100.00,SSE,155,6.0,9.0,57,0.00,,,-99.99,,2013-04-29 17:22:00,
2013-04-29 12:32:00,56.0,41.0,-100.00,SSE,165,5.0,9.0,57,0.00,,,-99.99,,2013-04-29 17:32:00,
2013-04-29 12:42:00,56.0,41.0,-100.00,SSE,165,5.0,9.0,57,0.00,,,-99.99,,2013-04-29 17:42:00,
2013-04-29 12:52:00,56.0,39.0,-100.00,SSE,165,5.0,9.0,53,0.00,,,-99.99,,2013-04-29 17:52:00,
2013-04-29 13:01:00,56.0,40.0,-100.00,SSE,160,5.0,9.0,54,0.00,,,-99.99,,2013-04-29 18:01:00,
2013-04-29 13:13:00,56.0,40.0,-100.00,SSE,160,5.0,9.0,54,0.00,,,-99.99,,2013-04-29 18:13:00,
2013-04-29 13:22:00,57.0,41.0,-100.00,SSE,160,4.0,9.0,54,0.00,,,-99.99,,2013-04-29 18:22:00,
2013-04-29 13:32:00,56.0,42.0,-100.00,SSE,150,6.0,9.0,57,0.00,,,-99.99,,2013-04-29 18:32:00,
2013-04-29 13:42:00,56.0,42.0,-100.00,SSE,150,6.0,9.0,57,0.00,,,-99.99,,2013-04-29 18:42:00,
2013-04-29 13:51:00,58.0,43.0,-100.00,SE,145,6.0,9.0,57,0.00,,,-99.99,,2013-04-29 18:51:00,
2013-04-29 14:01:00,58.0,42.0,-100.00,SSE,150,4.0,9.0,56,0.00,,,-99.99,,2013-04-29 19:01:00,
2013-04-29 14:11:00,58.0,42.0,-100.00,SSE,150,4.0,9.0,56,0.00,,,-99.99,,2013-04-29 19:11:00,
2013-04-29 14:21:00,58.0,42.0,-100.00,SE,140,4.0,9.0,55,0.00,,,-99.99,,2013-04-29 19:21:00,
2013-04-29 14:31:00,60.0,42.0,-100.00,SSE,160,4.0,9.0,52,0.00,,,-99.99,,2013-04-29 19:31:00,
2013-04-29 14:41:00,60.0,42.0,-100.00,SSE,160,4.0,9.0,52,0.00,,,-99.99,,2013-04-29 19:41:00,
2013-04-29 14:52:00,60.0,42.0,-100.00,SE,140,3.0,9.0,50,0.00,,,-99.99,,2013-04-29 19:52:00,
2013-04-29 15:02:00,61.0,43.0,-100.00,SE,140,4.0,9.0,51,0.00,,,-99.99,,2013-04-29 20:02:00,
2013-04-29 15:12:00,61.0,43.0,-100.00,SE,140,4.0,9.0,51,0.00,,,-99.99,,2013-04-29 20:12:00,
2013-04-29 15:21:00,60.0,39.0,-100.00,SE,145,4.0,21.0,46,0.00,,,-99.99,,2013-04-29 20:21:00,
2013-04-29 15:32:00,57.0,37.0,-100.00,SSE,165,4.0,9.0,46,0.00,,,-99.99,,2013-04-29 20:32:00,
2013-04-29 15:42:00,57.0,37.0,-100.00,SSE,165,4.0,9.0,46,0.00,,,-99.99,,2013-04-29 20:42:00,
2013-04-29 15:52:00,60.0,36.0,-100.00,SSE,160,4.0,20.0,41,0.00,,,-99.99,,2013-04-29 20:52:00,
2013-04-29 16:01:00,60.0,37.0,-100.00,SE,130,4.0,9.0,42,0.00,,,-99.99,,2013-04-29 21:01:00,
2013-04-29 16:11:00,60.0,37.0,-100.00,SE,130,4.0,9.0,42,0.00,,,-99.99,,2013-04-29 21:11:00,
2013-04-29 16:21:00,63.0,39.0,-100.00,SE,140,5.0,9.0,41,0.00,,,-99.99,,2013-04-29 21:21:00,
2013-04-29 16:33:00,64.0,40.0,-100.00,ESE,115,6.0,20.0,41,0.00,,,-99.99,,2013-04-29 21:33:00,
2013-04-29 16:42:00,64.0,40.0,-100.00,ESE,115,6.0,20.0,41,0.00,,,-99.99,,2013-04-29 21:42:00,
2013-04-29 16:53:00,60.0,36.0,-100.00,SE,145,4.0,21.0,39,0.00,,,-99.99,,2013-04-29 21:53:00,
2013-04-29 17:02:00,60.0,35.0,-100.00,SE,140,4.0,9.0,39,0.00,,,-99.99,,2013-04-29 22:02:00,
2013-04-29 17:13:00,60.0,35.0,-100.00,SE,140,4.0,9.0,39,0.00,,,-99.99,,2013-04-29 22:13:00,
2013-04-29 17:23:00,63.0,39.0,-100.00,SE,135,3.0,19.0,41,0.00,,,-99.99,,2013-04-29 22:23:00,
2013-04-29 17:32:00,59.0,35.0,-100.00,SE,125,5.0,20.0,41,0.00,,,-99.99,,2013-04-29 22:32:00,
2013-04-29 17:42:00,59.0,35.0,-100.00,SE,125,5.0,20.0,41,0.00,,,-99.99,,2013-04-29 22:42:00,
2013-04-29 17:52:00,61.0,38.0,-100.00,SSE,150,6.0,9.0,42,0.00,,,-99.99,,2013-04-29 22:52:00,
2013-04-29 18:02:00,61.0,39.0,-100.00,SE,140,6.0,9.0,43,0.00,,,-99.99,,2013-04-29 23:02:00,
2013-04-29 18:11:00,61.0,39.0,-100.00,SE,140,6.0,9.0,43,0.00,,,-99.99,,2013-04-29 23:11:00,
2013-04-29 18:22:00,60.0,40.0,-100.00,SSE,155,4.0,9.0,46,0.00,,,-99.99,,2013-04-29 23:22:00,
2013-04-29 18:32:00,61.0,41.0,-100.00,ESE,115,6.0,9.0,47,0.00,,,-99.99,,2013-04-29 23:32:00,
2013-04-29 18:42:00,61.0,41.0,-100.00,ESE,115,6.0,9.0,47,0.00,,,-99.99,,2013-04-29 23:42:00,
2013-04-29 18:52:00,60.0,40.0,-100.00,SE,130,6.0,9.0,48,0.00,,,-99.99,,2013-04-29 23:52:00,
2013-04-29 19:01:00,60.0,42.0,-100.00,SE,125,5.0,9.0,51,0.00,,,-99.99,,2013-04-30 00:01:00,
2013-04-29 19:11:00,60.0,42.0,-100.00,SE,125,5.0,9.0,51,0.00,,,-99.99,,2013-04-30 00:11:00,
2013-04-29 19:21:00,58.0,42.0,-100.00,ESE,115,6.0,9.0,55,0.00,,,-99.99,,2013-04-30 00:21:00,
2013-04-29 19:32:00,58.0,43.0,-100.00,SE,125,6.0,9.0,56,0.00,,,-99.99,,2013-04-30 00:32:00,
2013-04-29 19:42:00,58.0,43.0,-100.00,SE,125,6.0,9.0,56,0.00,,,-99.99,,2013-04-30 00:42:00,
2013-04-29 19:51:00,56.0,43.0,-100.00,ESE,105,5.0,9.0,59,0.00,,,-99.99,,2013-04-30 00:51:00,
2013-04-29 20:02:00,56.0,42.0,-100.00,SE,125,5.0,9.0,59,0.00,,,-99.99,,2013-04-30 01:02:00,
2013-04-29 20:11:00,56.0,42.0,-100.00,SE,125,5.0,9.0,59,0.00,,,-99.99,,2013-04-30 01:11:00,
2013-04-29 20:21:00,55.0,41.0,-100.00,ESE,110,5.0,9.0,58,0.00,,,-99.99,,2013-04-30 01:21:00,
2013-04-29 20:32:00,55.0,40.0,-100.00,ESE,110,5.0,9.0,57,0.00,,,-99.99,,2013-04-30 01:32:00,
2013-04-29 20:41:00,55.0,40.0,-100.00,ESE,110,5.0,9.0,57,0.00,,,-99.99,,2013-04-30 01:41:00,
2013-04-29 20:51:00,55.0,42.0,-100.00,East,90,3.0,9.0,60,0.00,,,-99.99,,2013-04-30 01:51:00,
2013-04-29 21:01:00,54.0,41.0,-100.00,East,100,6.0,9.0,61,0.00,,,-99.99,,2013-04-30 02:01:00,
2013-04-29 21:11:00,54.0,41.0,-100.00,East,100,6.0,9.0,61,0.00,,,-99.99,,2013-04-30 02:11:00,
2013-04-29 21:21:00,55.0,41.0,-100.00,ESE,110,5.0,9.0,58,0.00,,,-99.99,,2013-04-30 02:21:00,
2013-04-29 21:31:00,55.0,41.0,-100.00,East,100,6.0,9.0,57,0.00,,,-99.99,,2013-04-30 02:31:00,
2013-04-29 21:41:00,55.0,41.0,-100.00,East,100,6.0,9.0,57,0.00,,,-99.99,,2013-04-30 02:41:00,
2013-04-29 21:51:00,56.0,40.0,-100.00,East,90,5.0,9.0,55,0.00,,,-99.99,,2013-04-30 02:51:00,
2013-04-29 22:01:00,56.0,40.0,-100.00,East,80,2.0,8.0,55,0.00,,,-99.99,,2013-04-30 03:01:00,
2013-04-29 22:11:00,56.0,40.0,-100.00,East,80,2.0,8.0,55,0.00,,,-99.99,,2013-04-30 03:11:00,
2013-04-29 22:21:00,56.0,41.0,-100.00,East,90,2.0,9.0,57,0.00,,,-99.99,,2013-04-30 03:21:00,
2013-04-29 22:33:00,55.0,41.0,-100.00,ENE,75,1.0,4.0,58,0.00,,,-99.99,,2013-04-30 03:33:00,
2013-04-29 22:42:00,55.0,41.0,-100.00,ENE,75,1.0,4.0,58,0.00,,,-99.99,,2013-04-30 03:42:00,
2013-04-29 22:52:00,51.0,38.0,-100.00,East,85,1.0,9.0,59,0.00,,,-99.99,,2013-04-30 03:52:00,
2013-04-29 23:02:00,54.0,40.0,-100.00,East,90,2.0,7.0,59,0.00,,,-99.99,,2013-04-30 04:02:00,
2013-04-29 23:12:00,54.0,40.0,-100.00,East,90,2.0,7.0,59,0.00,,,-99.99,,2013-04-30 04:12:00,
2013-04-29 23:22:00,52.0,38.0,-100.00,ENE,75,1.0,7.0,59,0.00,,,-99.99,,2013-04-30 04:22:00,
2013-04-29 23:32:00,51.0,37.0,-100.00,NNE,25,2.0,7.0,58,0.00,,,-99.99,,2013-04-30 04:32:00,
2013-04-29 23:42:00,51.0,37.0,-100.00,NNE,25,2.0,7.0,58,0.00,,,-99.99,,2013-04-30 04:42:00,
2013-04-29 23:52:00,52.0,38.0,-100.00,NE,50,1.0,6.0,59,0.00,,,-99.99,,2013-04-30 04:52:00,